Mekoryuk, AK

11:08 PM AKST on February 08, 2016 (GMT -0900)
Mekoryuk

Weather History for PAMY - October, 2013

Change the Weather History Date:

Wednesday, October 23, 2013

  Actual Average Record
Temperature  
Mean Temperature 37 °F -  
Max Temperature 41 °F 33 °F 42 °F (2004)
Min Temperature 33 °F 25 °F 19 °F (1997)
Degree Days  
Heating Degree Days 28    
Moisture  
Dew Point 28 °F    
Average Humidity 67    
Maximum Humidity 75    
Minimum Humidity 61    
Precipitation  
Precipitation 0.00 in - - ()
Sea Level Pressure  
Sea Level Pressure 29.71 in    
Wind  
Wind Speed 21 mph (East)    
Max Wind Speed 29 mph    
Max Gust Speed 38 mph    
Visibility 10 miles    
Events      
Averages and records for this station are not official NWS values.
T = Trace of Precipitation, MM = Missing Value Source: NWS Daily Summary

Daily Weather History Graph

Daily Weather History Graph

Search for Another Location

Airport or City:

Trip Planner

Search our weather history database for the weather conditions in past years. The results will help you decide how hot, cold, wet, or windy it might be!

Date:

Astronomy

Oct. 23, 2013 Rise Set
Actual Time 10:06 AM AKDT 7:30 PM AKDT
Civil Twilight 9:22 AM AKDT 8:14 PM AKDT
Nautical Twilight 8:33 AM AKDT 9:03 PM AKDT
Astronomical Twilight 7:45 AM AKDT 9:52 PM AKDT
Moon 10:30 PM AKDT (10/23) 3:17 PM AKDT (10/23)
Length of Visible Light 10h 51m
Length of Day
9h 23m
Waning Gibbous, 78% of the Moon is Illuminated
Oct 23
Waning Gibbous
Oct 26
Last Quarter
Nov 3
New
Nov 9
First Quarter
Nov 17
Full

Hourly Weather History & Observations

Time (AKDT) Temp. Windchill Dew Point Humidity Pressure Visibility Wind Dir Wind Speed Gust Speed Precip Events Conditions
12:16 AM 39.2 °F 29.6 °F 28.4 °F 65% 29.84 in 10.0 mi ESE 19.6 mph 31.1 mph N/A   Clear
12:36 AM 39.2 °F 29.0 °F 28.4 °F 65% 29.84 in 10.0 mi ESE 21.9 mph 27.6 mph N/A   Clear
12:56 AM 39.2 °F 29.8 °F 28.4 °F 65% 29.84 in 10.0 mi ESE 18.4 mph - N/A   Scattered Clouds
1:16 AM 39.2 °F 29.6 °F 28.4 °F 65% 29.83 in 10.0 mi ESE 19.6 mph 28.8 mph N/A   Partly Cloudy
1:36 AM 39.2 °F 29.0 °F 28.4 °F 65% 29.83 in 10.0 mi ESE 21.9 mph 27.6 mph N/A   Scattered Clouds
1:56 AM 39.2 °F 29.0 °F 28.4 °F 65% 29.82 in 10.0 mi ESE 21.9 mph 28.8 mph N/A   Mostly Cloudy
2:16 AM 39.2 °F 29.3 °F 28.4 °F 65% 29.82 in 10.0 mi ESE 20.7 mph - N/A   Scattered Clouds
2:36 AM 39.2 °F 28.7 °F 28.4 °F 65% 29.82 in 10.0 mi East 23.0 mph 26.5 mph N/A   Partly Cloudy
2:56 AM 39.2 °F 29.0 °F 28.4 °F 65% 29.81 in 10.0 mi ESE 21.9 mph 26.5 mph N/A   Scattered Clouds
3:16 AM 39.2 °F 29.6 °F 28.4 °F 65% 29.81 in 10.0 mi East 19.6 mph 28.8 mph N/A   Partly Cloudy
3:36 AM 37.4 °F 27.2 °F 28.4 °F 70% 29.80 in 10.0 mi East 19.6 mph 29.9 mph N/A   Clear
3:56 AM 37.4 °F 26.9 °F 28.4 °F 70% 29.80 in 10.0 mi East 20.7 mph 26.5 mph N/A   Clear
4:16 AM 37.4 °F 26.9 °F 28.4 °F 70% 29.80 in 10.0 mi East 20.7 mph 25.3 mph N/A   Clear
4:36 AM 37.4 °F 26.4 °F 28.4 °F 70% 29.79 in 10.0 mi ESE 23.0 mph 27.6 mph N/A   Clear
4:56 AM 37.4 °F 26.6 °F 28.4 °F 70% 29.79 in 10.0 mi East 21.9 mph 28.8 mph N/A   Clear
5:16 AM 37.4 °F 26.6 °F 28.4 °F 70% 29.78 in 10.0 mi East 21.9 mph - N/A   Clear
5:36 AM 37.4 °F 26.4 °F 28.4 °F 70% 29.78 in 10.0 mi East 23.0 mph 29.9 mph N/A   Clear
5:56 AM 37.4 °F 26.4 °F 26.6 °F 65% 29.77 in 10.0 mi East 23.0 mph 28.8 mph N/A   Clear
6:16 AM 37.4 °F 26.6 °F 26.6 °F 65% 29.77 in 10.0 mi East 21.9 mph - N/A   Clear
6:36 AM 37.4 °F 27.2 °F 26.6 °F 65% 29.76 in 10.0 mi East 19.6 mph 27.6 mph N/A   Scattered Clouds
6:56 AM 37.4 °F 26.6 °F 28.4 °F 70% 29.76 in 10.0 mi East 21.9 mph 28.8 mph N/A   Overcast
7:16 AM 37.4 °F 26.1 °F 26.6 °F 65% 29.75 in 10.0 mi East 24.2 mph 28.8 mph N/A   Scattered Clouds
7:36 AM 37.4 °F 26.4 °F 26.6 °F 65% 29.75 in 10.0 mi East 23.0 mph 29.9 mph N/A   Clear
7:56 AM 37.4 °F 26.4 °F 26.6 °F 65% 29.74 in 10.0 mi East 23.0 mph 29.9 mph N/A   Clear
8:16 AM 37.4 °F 26.4 °F 26.6 °F 65% 29.74 in 10.0 mi East 23.0 mph 29.9 mph N/A   Clear
8:36 AM 37.4 °F 26.1 °F 26.6 °F 65% 29.74 in 10.0 mi East 24.2 mph 29.9 mph N/A   Partly Cloudy
8:56 AM 35.6 °F 23.7 °F 26.6 °F 70% 29.73 in 10.0 mi East 24.2 mph 31.1 mph N/A   Clear
9:16 AM 35.6 °F 24.2 °F 26.6 °F 70% 29.73 in 10.0 mi East 21.9 mph 31.1 mph N/A   Clear
9:36 AM 35.6 °F 24.2 °F 26.6 °F 70% 29.74 in 10.0 mi East 21.9 mph 29.9 mph N/A   Mostly Cloudy
9:56 AM 35.6 °F 24.0 °F 26.6 °F 70% 29.74 in 8.0 mi East 23.0 mph 28.8 mph N/A   Partly Cloudy
10:16 AM 35.6 °F 24.8 °F 26.6 °F 70% 29.73 in 8.0 mi East 19.6 mph 27.6 mph N/A   Clear
10:36 AM 37.4 °F 26.9 °F 26.6 °F 65% 29.73 in 8.0 mi East 20.7 mph 26.5 mph N/A   Clear
10:56 AM 37.4 °F 26.4 °F 26.6 °F 65% 29.73 in 8.0 mi East 23.0 mph 28.8 mph N/A   Clear
11:16 AM 37.4 °F 27.2 °F 26.6 °F 65% 29.73 in 8.0 mi East 19.6 mph 25.3 mph N/A   Clear
11:36 AM 35.6 °F 24.8 °F 28.4 °F 75% 29.73 in 8.0 mi East 19.6 mph 26.5 mph N/A   Clear
11:56 AM 37.4 °F 27.2 °F 26.6 °F 65% 29.73 in 8.0 mi East 19.6 mph 27.6 mph N/A   Clear
12:16 PM 37.4 °F 26.9 °F 28.4 °F 70% 29.72 in 8.0 mi East 20.7 mph 27.6 mph N/A   Clear
12:36 PM 37.4 °F 26.4 °F 28.4 °F 70% 29.72 in 9.0 mi East 23.0 mph 32.2 mph N/A   Mostly Cloudy
12:56 PM 37.4 °F 26.1 °F 28.4 °F 70% 29.72 in 9.0 mi ESE 24.2 mph 29.9 mph N/A   Partly Cloudy
1:16 PM 37.4 °F 26.1 °F 28.4 °F 70% 29.71 in 9.0 mi ESE 24.2 mph 31.1 mph N/A   Scattered Clouds
1:36 PM 37.4 °F 26.6 °F 28.4 °F 70% 29.71 in 9.0 mi East 21.9 mph 28.8 mph N/A   Scattered Clouds
1:56 PM 37.4 °F 25.9 °F 28.4 °F 70% 29.71 in 9.0 mi ESE 25.3 mph 31.1 mph N/A   Partly Cloudy
2:16 PM 39.2 °F 28.5 °F 28.4 °F 65% 29.71 in 10.0 mi ESE 24.2 mph 29.9 mph N/A   Partly Cloudy
2:36 PM 39.2 °F 28.7 °F 28.4 °F 65% 29.70 in 9.0 mi ESE 23.0 mph 28.8 mph N/A   Mostly Cloudy
2:56 PM 41.0 °F 31.1 °F 28.4 °F 61% 29.69 in 10.0 mi ESE 23.0 mph 32.2 mph N/A   Mostly Cloudy
3:16 PM 39.2 °F 29.6 °F 28.4 °F 65% 29.69 in 9.0 mi East 19.6 mph 27.6 mph N/A   Scattered Clouds
3:36 PM 39.2 °F 29.3 °F 28.4 °F 65% 29.68 in 10.0 mi East 20.7 mph 28.8 mph N/A   Mostly Cloudy
3:56 PM 39.2 °F 28.7 °F 28.4 °F 65% 29.67 in 9.0 mi East 23.0 mph 28.8 mph N/A   Overcast
4:16 PM 39.2 °F 29.0 °F 28.4 °F 65% 29.66 in 10.0 mi East 21.9 mph 28.8 mph N/A   Overcast
4:36 PM 39.2 °F 29.8 °F 28.4 °F 65% 29.67 in 10.0 mi East 18.4 mph 29.9 mph N/A   Overcast
4:56 PM 39.2 °F 29.0 °F 28.4 °F 65% 29.66 in 10.0 mi East 21.9 mph 29.9 mph N/A   Overcast
5:16 PM 39.2 °F 30.5 °F 28.4 °F 65% 29.66 in 10.0 mi East 16.1 mph 25.3 mph N/A   Overcast
5:36 PM 39.2 °F 30.2 °F 28.4 °F 65% 29.65 in 10.0 mi East 17.3 mph 26.5 mph N/A   Overcast
5:56 PM 39.2 °F 29.8 °F 28.4 °F 65% 29.64 in 10.0 mi East 18.4 mph 27.6 mph N/A   Overcast
6:16 PM 39.2 °F 29.8 °F 28.4 °F 65% 29.63 in 10.0 mi East 18.4 mph 24.2 mph N/A   Overcast
6:36 PM 39.2 °F 29.3 °F 28.4 °F 65% 29.63 in 10.0 mi East 20.7 mph 26.5 mph N/A   Overcast
8:36 PM 37.4 °F 27.5 °F 28.4 °F 70% 29.61 in 10.0 mi East 18.4 mph 26.5 mph N/A   Overcast
8:56 PM 37.4 °F 27.5 °F 28.4 °F 70% 29.60 in 10.0 mi East 18.4 mph 27.6 mph N/A   Overcast
9:16 PM 37.4 °F 27.2 °F 28.4 °F 70% 29.59 in 10.0 mi ENE 19.6 mph 25.3 mph N/A   Overcast
9:36 PM 37.4 °F 26.9 °F 28.4 °F 70% 29.59 in 10.0 mi East 20.7 mph 28.8 mph N/A   Overcast
9:56 PM 37.4 °F 27.5 °F 28.4 °F 70% 29.58 in 10.0 mi East 18.4 mph 28.8 mph N/A   Scattered Clouds
10:16 PM 35.6 °F 24.5 °F 26.6 °F 70% 29.58 in 9.0 mi East 20.7 mph 27.6 mph N/A   Partly Cloudy
10:36 PM 35.6 °F 23.7 °F 26.6 °F 70% 29.56 in 10.0 mi East 24.2 mph 27.6 mph N/A   Clear
10:56 PM 35.6 °F 23.0 °F 26.6 °F 70% 29.55 in 10.0 mi ENE 27.6 mph 33.4 mph N/A   Scattered Clouds
11:16 PM 35.6 °F 23.4 °F 26.6 °F 70% 29.54 in 10.0 mi ENE 25.3 mph 35.7 mph N/A   Mostly Cloudy
11:36 PM 33.8 °F 20.5 °F 26.6 °F 75% 29.54 in 10.0 mi ENE 27.6 mph 35.7 mph N/A   Overcast
11:56 PM 33.8 °F 20.3 °F 26.6 °F 75% 29.53 in 10.0 mi ENE 28.8 mph 38.0 mph N/A   Overcast